[[{"header":{"parameterUnit":"m.s-1","parameterCategory":1,"la1":30.2991,"la2":30.254,"lo1":-89.0895,"lo2":-89.0444,"dy":0.0017,"dx":0.0017,"nx":28,"ny":28,"refTime":"2024-07-05T09:00:00:Z","depth":0,"parameterNumber":2,"parameterNumberName":"U-component_of_WINDS"},"data":[0,0,0,0,0,0,0,0,0,0,0,0,0,0,0,0,0,0,0,0,0,0,0,0,0,0,0,0,0,0,0,0,0,0,0,0,0,0,0,0,0,0,0,0,0,0,0,0,0,0,0,0,0,0,0,0,0,0,3.5586,3.5588,0,3.5726,3.5727,3.5729,3.5703,3.57,3.5698,3.5695,3.5838,3.5844,3.585,0,0,0,0,0,0,0,0,0,0,0,0,0,3.5294,3.5299,3.5586,3.5588,3.559,3.5726,3.5727,3.5729,3.5703,3.57,3.5697,3.5694,3.5836,3.5843,3.5851,0,0,0,0,0,0,0,0,0,0,0,0,0,3.5426,3.5301,3.5586,3.5593,3.5595,3.5725,3.5728,3.573,3.5704,3.57,3.5696,3.5693,3.5834,3.5842,3.5852,3.5983,0,0,3.588,3.5884,0,0,0,0,0,0,0,0,3.5419,3.5437,3.559,3.5593,3.5595,3.5693,3.5677,3.5815,3.5705,3.5663,3.5695,3.5691,3.5793,3.5805,3.5839,3.599,3.5996,3.588,3.5886,3.589,3.5893,0,0,0,0,0,0,0,3.5409,3.5431,3.5641,3.5592,3.5596,3.5588,3.5603,3.5703,3.5747,3.5666,3.5664,3.5681,3.5793,3.5831,3.5843,3.5998,3.588,3.5888,3.5894,3.5898,3.6259,3.6263,0,0,0,0,0,0,3.5398,3.5423,3.5637,3.5646,3.5496,3.5597,3.5613,3.5665,3.5746,3.5754,3.5684,3.5679,3.5817,3.5832,3.5848,3.6004,3.589,3.5898,3.5904,3.6255,3.626,3.6265,0,0,0,0,0,0,3.5392,3.5418,3.5631,3.5534,3.5561,3.5606,3.5665,3.567,3.5707,3.576,3.5767,3.5714,3.5814,3.5835,3.5949,3.6008,3.5903,3.5911,3.6251,3.6257,3.6263,3.632,0,0,0,0,0,0,3.5384,3.5415,3.5467,3.5535,3.5566,3.5731,3.5669,3.5676,3.5723,3.5718,3.579,3.5798,3.5813,3.5935,3.5958,3.6019,3.5918,3.6245,3.6253,3.6261,3.6312,3.6327,3.6339,0,0,0,0,0,3.5373,3.5478,3.547,3.5496,3.5631,3.5735,3.5752,3.5767,3.5728,3.5779,3.5812,3.5796,3.5999,3.5947,3.5973,3.6037,3.6242,3.6251,3.626,3.6306,3.6324,3.6339,0,0,0,0,0,0,3.5416,3.5487,3.5479,3.5609,3.5666,3.573,3.5795,3.5786,3.5855,3.5848,3.5863,3.588,3.5995,3.6028,3.5969,3.6167,3.6114,3.6129,3.6141,3.6158,3.6171,3.616,3.5926,0,0,0,0,0,3.5441,3.5519,3.5577,3.5686,3.5715,3.575,3.5796,3.5803,3.5862,3.5886,3.5928,3.5986,3.6062,3.6113,3.6186,3.6318,3.6331,3.6375,3.6388,3.6399,3.641,3.6479,3.6498,3.6295,3.6295,3.6295,0,0,3.5492,3.5541,3.559,3.5696,3.5741,3.5821,3.5771,3.5859,3.5917,3.59,3.6009,3.6042,3.6107,3.623,3.6286,3.6261,3.6469,3.641,3.6419,3.6425,3.649,3.6509,3.6526,3.6301,3.63,3.6299,0,0,3.5626,3.5672,3.5766,3.5812,3.588,3.5902,3.5925,3.599,3.6011,3.6121,3.6108,3.6178,3.6311,3.6357,3.6398,3.6546,3.6532,3.657,3.6638,3.6705,3.6721,3.6735,3.6784,3.6802,3.6582,3.6582,3.6582,0,3.5681,3.5801,3.5816,3.5903,3.5949,3.5937,3.603,3.6074,3.6163,3.6194,3.6165,3.6329,3.6372,3.6503,3.6539,3.6574,3.6598,3.6561,3.6717,3.6732,3.6745,3.6792,3.6811,3.6586,3.6585,3.6585,3.6585,0,3.5864,3.5947,3.6015,3.61,3.6153,3.6244,3.6271,3.6323,3.6325,3.6349,3.646,3.6512,3.6594,3.6626,3.6629,3.6757,3.6738,3.6714,3.666,3.6768,3.6812,3.6831,3.6591,3.659,3.6589,3.6588,0,0,3.6029,3.6119,3.6143,3.6179,3.6253,3.6317,3.6406,3.6486,3.6529,3.6591,3.6663,3.6775,3.6751,3.6797,3.6805,3.6864,3.6973,3.6831,3.6833,3.6853,3.7113,3.7129,3.715,3.6965,3.6969,3.6972,3.7106,0,3.6167,3.6323,3.6338,3.6478,3.6553,3.6541,3.6618,3.667,3.6696,3.6762,3.679,3.6867,3.6832,3.6859,3.6917,3.6948,3.7025,3.6939,3.7031,3.7034,3.7012,3.7174,3.7192,3.7317,3.7124,3.7127,3.7129,0,3.6349,3.6414,3.6561,3.662,3.6653,3.6722,3.6794,3.6859,3.6917,3.6931,3.6981,3.6981,3.707,3.7015,3.7137,3.7077,3.7116,3.7137,3.7142,3.7149,3.7086,3.7182,3.7357,3.7375,3.7158,3.7155,3.7153,0,3.645,3.6575,3.6678,3.671,3.6783,3.6831,3.6864,3.6919,3.6964,3.7028,3.7057,3.713,3.717,3.7226,3.7244,3.7203,3.7364,3.7311,3.7376,3.7375,3.7409,3.7406,3.7589,3.7439,3.7438,3.7438,3.7438,0,3.6601,3.669,3.6723,3.6787,3.6886,3.6901,3.6999,3.7029,3.7077,3.7144,3.7139,3.7203,3.7224,3.7291,3.7306,3.7402,3.7421,3.7433,3.7435,3.7432,3.743,3.7456,3.7446,3.7443,3.7442,3.7441,3.744,0,3.673,3.6756,3.6867,3.6926,3.6943,3.7013,3.7063,3.7123,3.7147,3.7232,3.7253,3.729,3.7367,3.7391,3.7486,3.7496,3.7607,3.7604,3.7587,3.7587,3.7648,3.7641,3.7852,3.7879,3.7714,3.7716,3.7717,0,3.6823,3.6891,3.6957,3.7002,3.7036,3.7109,3.7154,3.7172,3.722,3.729,3.734,3.7417,3.7479,3.7604,3.7638,3.7709,3.7705,3.7774,3.7716,3.7709,3.7702,3.7696,3.7702,3.7784,3.7786,3.7787,3.7789,0,3.6984,3.6993,3.706,3.7131,3.7186,3.7243,3.7297,3.7334,3.7358,3.7412,3.7491,3.7539,3.7634,3.7709,3.7781,3.7813,3.7804,3.7807,3.7825,3.7821,3.7807,3.7811,3.7614,3.7802,3.78,3.7799,3.7799,3.7798,3.7096,3.7155,3.7209,3.7283,3.7326,3.7376,3.7434,3.7464,3.753,3.7608,3.7614,3.7699,3.7752,3.7848,3.7884,3.7949,3.7929,3.7956,3.7962,3.7968,3.7971,3.7799,3.7962,3.7962,3.7962,3.7962,3.7961,0,3.7254,3.7288,3.7356,3.7431,3.7489,3.7476,3.7535,3.7583,3.7657,3.7708,3.7769,3.7857,3.793,3.7969,3.8041,3.8085,3.8082,3.8103,3.8098,3.8105,3.7987,3.7962,3.8104,3.8103,3.8103,3.8103,3.8103,3.8103,3.7343,3.744,3.7455,3.7573,3.7606,3.7688,3.7722,3.7768,3.7808,3.7907,3.7967,3.7992,3.8038,3.8112,3.8177,3.8187,3.8212,3.8234,3.8241,3.8129,3.8114,3.81,3.8077,3.824,3.824,3.8353,3.8354,3.8355]},{"header":{"parameterUnit":"m.s-1","parameterCategory":1,"la1":30.2991,"la2":30.254,"lo1":-89.0895,"lo2":-89.0444,"dy":0.0017,"dx":0.0017,"nx":28,"ny":28,"refTime":"2024-07-05T09:00:00:Z","depth":0,"parameterNumber":3,"parameterNumberName":"V-component_of_WINDS"},"data":[0,0,0,0,0,0,0,0,0,0,0,0,0,0,0,0,0,0,0,0,0,0,0,0,0,0,0,0,0,0,0,0,0,0,0,0,0,0,0,0,0,0,0,0,0,0,0,0,0,0,0,0,0,0,0,0,0,0,1.9817,1.9817,0,1.9838,1.9839,1.9839,1.9803,1.9802,1.98,1.9799,1.9821,1.9823,1.9825,0,0,0,0,0,0,0,0,0,0,0,0,0,1.9742,1.9744,1.9817,1.9817,1.9817,1.9838,1.9839,1.9839,1.9803,1.9802,1.98,1.9799,1.9821,1.9823,1.9825,0,0,0,0,0,0,0,0,0,0,0,0,0,1.977,1.9744,1.9817,1.9802,1.9801,1.9838,1.9839,1.9839,1.9803,1.9802,1.98,1.9798,1.982,1.9823,1.9825,1.9878,0,0,1.9833,1.9834,0,0,0,0,0,0,0,0,1.9769,1.9773,1.9804,1.9803,1.9802,1.9816,1.982,1.9852,1.9804,1.9802,1.9799,1.9797,1.9821,1.9824,1.9832,1.9879,1.988,1.9834,1.9835,1.9836,1.9837,0,0,0,0,0,0,0,1.9767,1.9772,1.9825,1.9804,1.9803,1.9793,1.9795,1.9826,1.9822,1.9802,1.98,1.9803,1.982,1.9829,1.9832,1.9881,1.9833,1.9836,1.9837,1.9838,1.9971,1.9972,0,0,0,0,0,0,1.9767,1.977,1.9825,1.9826,1.978,1.9796,1.9798,1.9813,1.9821,1.9821,1.9804,1.9801,1.9826,1.9829,1.9833,1.9894,1.9836,1.9839,1.984,1.9969,1.9971,1.9973,0,0,0,0,0,0,1.9765,1.9772,1.9824,1.9797,1.9803,1.98,1.9816,1.9815,1.9824,1.9823,1.9822,1.9815,1.9824,1.9829,1.9867,1.9894,1.984,1.9842,1.9966,1.9969,1.9972,2.0017,0,0,0,0,0,0,1.9763,1.9772,1.9792,1.9798,1.9805,1.9858,1.9818,1.9816,1.9828,1.9824,1.9832,1.9832,1.9823,1.9863,1.9869,1.9897,1.9844,1.9964,1.9968,1.9971,2.0013,2.0022,2.0028,0,0,0,0,0,1.9761,1.9805,1.9794,1.98,1.9831,1.986,1.9864,1.9853,1.9831,1.9851,1.985,1.9832,1.989,1.9867,1.9874,1.9903,1.9962,1.9967,1.9971,2.001,2.002,2.0028,0,0,0,0,0,0,1.9803,1.9805,1.9793,1.984,1.985,1.9854,1.9879,1.9864,1.988,1.9876,1.9862,1.9864,1.9904,1.9907,1.9882,1.9953,1.9922,1.9928,1.995,1.9959,1.9966,1.9965,1.9846,0,0,0,0,0,1.9818,1.9841,1.9842,1.9884,1.9889,1.9883,1.9896,1.9886,1.9896,1.99,1.9902,1.9912,1.9932,1.9946,1.9965,2.0014,2.0014,2.0036,2.0044,2.005,2.0055,2.0079,2.0089,1.9987,1.9987,1.9987,0,0,1.9849,1.9853,1.9869,1.9892,1.9899,1.9923,1.9887,1.9915,1.9932,1.9904,1.9939,1.9941,1.9951,1.9994,2.0013,1.9998,2.0083,2.0056,2.006,2.0062,2.0085,2.0094,2.0103,1.999,1.999,1.9989,0,0,1.9917,1.9923,1.9957,1.9964,1.9974,1.9969,1.9977,1.9983,1.9983,2.0018,1.9997,2.0017,2.0053,2.006,2.0069,2.0137,2.012,2.0144,2.0183,2.0206,2.0214,2.0221,2.0244,2.0253,2.0149,2.0149,2.0149,0,1.9954,1.9989,1.9977,2.0005,2.0015,1.999,2.0024,2.0031,2.0047,2.0054,2.0037,2.008,2.0085,2.0128,2.0145,2.0153,2.0161,2.0143,2.0214,2.0221,2.0227,2.0249,2.0258,2.0152,2.0151,2.0151,2.0151,0,2.0034,2.0058,2.0085,2.01,2.0113,2.0144,2.0135,2.015,2.0139,2.0136,2.0171,2.0176,2.0194,2.0204,2.0194,2.0246,2.0236,2.0217,2.0185,2.024,2.026,2.0269,2.0156,2.0155,2.0154,2.0153,0,0,2.013,2.0136,2.0146,2.0151,2.0159,2.0178,2.0207,2.0225,2.0237,2.0248,2.0271,2.0301,2.0283,2.0292,2.0283,2.0304,2.0356,2.0282,2.0282,2.0294,2.0411,2.0425,2.0435,2.0344,2.0346,2.0347,2.041,0,2.0197,2.0247,2.0235,2.0284,2.0306,2.0282,2.0307,2.0314,2.0312,2.0329,2.0327,2.0347,2.0322,2.0328,2.0347,2.0345,2.0379,2.0341,2.0365,2.0366,2.0363,2.0445,2.046,2.0519,2.0417,2.0419,2.042,0,2.0282,2.0295,2.0346,2.0348,2.0357,2.038,2.0394,2.0411,2.0418,2.0415,2.0425,2.041,2.0438,2.0407,2.0444,2.0418,2.0427,2.0428,2.043,2.0431,2.0396,2.0448,2.0538,2.0546,2.0432,2.0431,2.043,0,2.0345,2.0376,2.041,2.0415,2.0419,2.0436,2.0438,2.0443,2.0454,2.0466,2.0472,2.0488,2.0496,2.0508,2.0498,2.0476,2.0536,2.0505,2.0534,2.0534,2.0547,2.0546,2.0639,2.0555,2.0554,2.0554,2.0554,0,2.042,2.0452,2.0438,2.0459,2.0493,2.0479,2.0513,2.0513,2.0517,2.0537,2.0517,2.0536,2.0522,2.0539,2.0532,2.0563,2.0567,2.0564,2.0562,2.0566,2.0566,2.0571,2.0566,2.0557,2.0556,2.0556,2.0555,0,2.0497,2.0489,2.0524,2.0524,2.0525,2.055,2.055,2.0569,2.0564,2.0589,2.0594,2.0587,2.0607,2.0598,2.0618,2.0613,2.0652,2.0645,2.065,2.0648,2.0677,2.0674,2.0775,2.0787,2.0696,2.0697,2.0698,0,2.0545,2.0569,2.0571,2.0582,2.0586,2.0605,2.0615,2.0602,2.0613,2.0622,2.0639,2.0656,2.067,2.0701,2.0698,2.0713,2.0705,2.0739,2.0707,2.071,2.0704,2.0702,2.0704,2.0746,2.0747,2.0748,2.0748,0,2.0631,2.0625,2.064,2.0654,2.0666,2.0677,2.0685,2.0696,2.0682,2.0696,2.0715,2.0725,2.0745,2.0762,2.0775,2.0777,2.076,2.0758,2.0766,2.0769,2.0771,2.0769,2.0667,2.0756,2.0755,2.0755,2.0754,2.0754,2.0694,2.0713,2.0717,2.0734,2.0739,2.0746,2.0763,2.076,2.0776,2.0791,2.0782,2.0804,2.0808,2.0824,2.0828,2.0844,2.083,2.0841,2.0844,2.0847,2.085,2.0769,2.0847,2.0846,2.0846,2.0846,2.0846,0,2.0777,2.0778,2.0794,2.0806,2.0819,2.0802,2.0809,2.0822,2.0841,2.0847,2.0859,2.088,2.0896,2.0893,2.0908,2.0921,2.0914,2.0925,2.0924,2.0924,2.0862,2.0854,2.0931,2.0931,2.0931,2.0931,2.0931,2.0931,2.0822,2.0853,2.0847,2.0879,2.088,2.0901,2.0906,2.0913,2.0917,2.0941,2.0954,2.0952,2.0954,2.0968,2.0981,2.098,2.0986,2.1,2.0996,2.0937,2.0929,2.0921,2.0913,2.1001,2.1002,2.1056,2.1057,2.1057]}]]